Wind_Speed
10 12 13 15 15 15 16 18 18 19 22 22 23 21 24 26 29 29 31 32 34 35 36 39 35 31 32 34 34 32 33 34 36 39 43 37 39 44 45 42 43 46 46 46
10 10 12 14 17 19 20 22 22 21 26 28 29 30 31 34 37 38 39 40 41 44 43 41 38 38 33 36 38 43 46 46 47 48 47 47 42 37 42 44 43 43 46 49
10 9 11 16 19 21 24 29 28 30 29 31 35 37 40 41 45 48 50 51 51 50 46 45 45 43 43 42 44 47 51 52 51 51 53 56 56 53 46 44 40 41 45 48
12 15 18 21 25 27 27 32 33 34 37 35 36 40 45 46 49 54 56 56 54 52 49 48 48 49 47 49 50 52 51 54 54 54 56 56 60 62 61 54 51 48 46 46
17 19 21 24 29 33 35 36 38 40 42 43 42 45 47 53 56 57 57 57 57 58 57 56 57 57 55 53 53 56 57 56 59 61 61 65 63 64 64 66 61 55 52 50
22 25 27 29 34 37 38 39 39 42 42 41 42 44 49 51 53 56 58 60 61 62 62 63 62 61 62 61 62 64 65 65 66 68 66 66 69 68 69 70 70 63 60 58
25 26 28 29 31 37 38 39 40 40 40 40 41 45 48 52 54 57 59 61 63 63 65 65 66 65 64 68 71 73 74 74 73 73 74 72 74 75 76 75 77 75 67 62
28 31 32 32 33 37 37 37 38 41 40 40 38 44 49 52 56 56 58 59 60 64 65 67 72 75 75 75 78 79 79 80 79 80 81 84 84 80 76 77 76 80 80 74
31 32 35 36 38 39 40 39 41 43 45 49 50 52 58 65 62 60 59 61 62 65 70 74 75 75 77 79 82 86 89 92 95 96 97 96 94 89 81 78 76 81 86 84
32 32 35 38 37 40 41 40 42 46 52 56 56 59 62 66 63 63 60 58 65 71 71 72 71 70 74 77 83 91 97 99 99 95 88 92 87 81 73 72 78 88 82 86
38 39 40 42 42 43 43 45 49 52 56 60 60 62 64 64 64 67 69 71 75 78 75 74 79 86 90 93 94 92 89 86 83 78 71 64 60 61 59 66 95 98 103 92
38 41 41 41 43 46 48 49 53 57 60 65 67 66 64 65 66 69 75 79 82 81 83 84 87 89 90 85 79 67 63 62 58 56 57 53 47 49 50 49 62 77 108 106
40 43 46 47 50 52 51 52 56 60 62 63 69 68 64 61 66 70 75 79 81 82 81 82 83 82 76 67 60 56 53 52 50 49 49 50 47 46 48 45 49 52 66 102
43 45 47 49 51 52 53 54 58 60 64 65 66 72 65 69 70 73 77 76 76 78 78 77 75 70 62 56 56 54 53 49 52 52 49 45 45 46 43 46 45 49 46 71
43 45 49 49 51 53 55 56 59 61 65 67 62 67 69 70 72 73 74 73 74 74 74 67 63 61 56 55 52 52 51 50 50 50 46 44 38 40 41 45 42 44 40 40
45 48 50 50 53 55 55 58 60 62 64 63 66 66 70 71 71 73 72 67 68 69 63 59 56 52 51 54 51 51 49 47 46 44 44 41 39 37 39 38 39 41 39 31
47 50 52 52 55 58 55 58 60 61 62 63 67 70 69 71 71 71 69 65 66 67 64 61 59 57 57 53 54 50 48 46 41 41 39 36 40 39 38 38 36 40 39 34
48 50 53 54 56 57 54 59 59 59 62 63 68 68 71 73 72 71 62 65 66 66 64 62 60 62 60 57 56 55 46 45 40 38 37 36 38 41 38 39 37 36 38 30
48 50 52 51 56 57 55 58 58 61 58 66 69 71 72 72 74 66 59 63 66 66 64 63 60 59 61 55 50 50 45 45 41 34 36 36 38 40 39 38 38 31 31 29
47 50 53 51 56 55 56 59 60 64 64 68 71 70 72 72 73 66 61 63 65 62 61 60 57 56 58 58 52 54 48 45 43 41 39 39 39 38 38 37 36 27 21 26
49 53 53 52 55 53 58 60 62 67 71 68 69 69 71 72 70 71 70 63 64 60 57 56 55 55 53 54 56 53 48 46 43 42 42 41 38 37 37 34 32 23 22 25
48 51 52 51 54 57 59 60 65 68 68 71 69 72 73 69 66 70 65 63 61 60 59 57 56 53 51 51 53 56 52 47 46 43 40 40 39 38 36 34 26 21 17 26
45 48 50 50 52 56 59 61 64 68 70 71 74 72 71 70 71 68 61 59 61 63 63 63 63 60 56 50 48 50 49 50 46 44 43 39 37 36 33 32 25 19 12 26
43 52 53 55 53 57 56 58 64 67 72 71 72 71 69 68 70 62 62 65 63 58 55 55 54 55 52 48 45 46 45 44 45 41 41 38 36 33 31 28 19 16 13 34
47 54 54 56 58 56 56 60 64 66 70 69 70 68 66 68 64 64 66 60 57 56 53 51 55 55 48 41 35 37 39 37 37 39 38 35 34 29 28 23 16 14 18 35
51 55 56 57 56 54 56 59 64 66 68 67 67 66 63 67 64 65 58 56 56 56 51 49 50 46 37 30 30 30 30 27 25 32 34 32 27 24 27 22 14 15 26 34
Wind_Direction
278 292 301 295 305 303 307 309 309 308 303 302 298 304 291 293 288 287 288 292 292 289 288 291 290 289 286 286 284 279 283 282 281 282 283 280 272 270 269 267 268 270 270 271
281 294 292 303 309 311 314 306 307 307 299 298 297 299 296 293 293 293 291 288 287 291 289 288 286 288 281 288 287 284 288 287 283 280 278 282 283 276 270 268 266 266 268 266
297 306 304 307 309 312 310 306 309 307 298 295 297 294 295 292 293 293 293 295 294 293 291 288 289 290 293 293 290 287 288 288 288 286 285 285 283 282 278 270 270 268 263 265
311 317 316 312 309 308 307 307 305 302 300 296 296 297 298 297 296 295 296 297 296 295 295 295 296 297 294 291 288 287 287 287 286 285 283 281 279 279 279 275 270 271 269 265
310 312 313 310 309 309 309 307 307 304 303 305 301 301 298 298 297 299 299 300 301 301 302 301 298 297 293 290 285 284 286 284 285 285 284 284 283 280 276 277 275 268 267 264
316 317 317 315 309 308 306 305 304 302 301 300 302 303 300 301 302 301 301 303 303 302 300 299 298 295 292 291 288 286 286 285 283 282 280 277 281 282 280 277 274 273 270 266
312 310 307 307 306 307 312 314 311 308 308 308 308 306 305 303 302 301 302 300 299 297 297 297 296 293 289 290 284 284 282 282 280 277 278 276 276 280 280 276 275 272 270 268
312 312 313 315 311 312 316 313 312 308 309 307 308 305 303 301 301 301 303 302 298 299 295 296 297 297 296 292 289 287 284 284 284 281 281 281 281 279 274 271 270 270 269 267
318 318 316 315 315 318 316 315 312 310 307 308 307 308 309 311 311 310 306 303 300 297 297 298 298 299 294 293 292 292 291 289 288 289 287 286 285 283 276 253 264 267 266 264
319 319 318 314 315 316 312 313 313 313 312 310 312 310 313 313 312 310 306 293 289 290 292 296 297 293 289 290 289 292 293 293 293 294 293 291 287 281 271 259 246 245 258 260
317 318 316 313 314 313 313 313 313 311 312 311 312 309 313 312 308 306 302 299 296 298 300 297 295 298 302 301 300 299 298 297 295 294 291 285 280 275 265 250 240 238 238 243
315 315 313 314 314 313 314 316 315 312 313 312 309 309 313 306 305 302 301 300 300 302 301 301 302 303 302 300 297 294 294 296 298 295 294 288 279 269 271 265 254 253 242 237
314 314 313 314 314 313 314 314 313 311 310 312 306 314 308 306 303 303 301 300 304 305 303 304 303 301 299 297 293 292 293 298 296 296 298 291 282 271 270 272 267 264 255 245
313 314 314 316 315 314 314 314 313 312 311 309 314 309 311 308 306 304 304 307 306 305 306 305 304 301 299 292 291 291 292 295 296 294 298 288 289 277 269 270 276 271 274 246
311 313 314 314 312 311 311 312 310 311 310 311 314 311 311 311 311 311 311 311 309 308 309 309 304 297 293 288 291 289 291 296 295 298 297 282 291 289 274 273 277 276 269 257
312 313 314 314 310 309 310 311 311 312 313 314 314 314 313 314 314 314 314 312 312 313 315 313 307 298 294 294 293 291 290 293 295 298 300 284 281 289 274 278 272 275 273 244
312 313 313 312 311 312 313 311 314 316 314 316 313 315 317 317 318 315 315 317 314 315 316 312 307 302 297 294 295 297 294 291 292 299 301 293 279 282 285 280 274 276 274 252
311 311 310 311 313 312 319 312 316 315 316 318 316 318 319 319 318 320 320 315 315 313 311 306 302 301 298 292 291 291 287 285 286 296 297 299 283 279 283 278 282 274 272 240
310 310 308 310 311 312 309 313 316 314 317 313 318 318 320 320 320 324 314 314 312 310 307 304 301 297 295 295 289 288 287 280 282 284 289 296 296 284 280 277 285 282 255 219
308 309 309 310 308 311 311 315 316 315 319 321 320 322 322 322 320 324 318 316 313 310 306 303 303 302 297 295 290 283 285 278 279 282 280 290 298 291 277 273 283 280 255 203
311 310 310 312 308 313 310 315 317 320 322 322 323 323 323 323 322 323 322 319 316 313 308 305 302 299 297 291 287 282 279 276 274 275 280 282 293 290 275 267 280 276 285 193
313 309 311 313 310 314 313 318 319 321 323 325 326 325 325 323 323 324 321 318 316 312 308 306 304 304 302 295 286 281 272 272 270 273 277 280 285 288 274 263 273 267 273 188
311 304 308 309 313 309 313 316 318 322 325 326 327 327 323 325 327 323 320 318 315 312 310 308 306 305 301 295 291 286 275 265 265 269 272 277 280 283 271 255 260 263 246 188
309 301 309 309 310 311 314 315 318 320 325 328 327 326 324 324 323 319 318 317 316 316 316 315 315 313 305 299 293 291 288 274 260 262 266 271 279 278 262 247 249 249 203 186
308 302 305 307 308 310 313 316 319 323 328 327 328 326 322 323 324 321 320 321 321 322 319 317 319 320 311 302 294 295 293 281 263 257 262 270 276 269 244 232 239 235 192 177
301 305 306 306 306 309 314 317 322 327 328 327 328 327 325 325 325 323 324 324 323 323 317 316 320 322 317 309 303 299 294 285 272 258 262 269 266 247 225 220 224 223 176 175
Height
5887 5887 5887 5886 5886 5886 5885 5883 5882 5880 5877 5876 5873 5874 5871 5868 5865 5864 5862 5861 5858 5856 5854 5850 5848 5844 5842 5840 5838 5833 5832 5831 5830 5827 5824 5829 5830 5828 5827 5829 5830 5830 5831 5830
5885 5885 5884 5883 5881 5880 5879 5877 5877 5876 5872 5870 5867 5865 5865 5860 5857 5855 5853 5851 5849 5847 5844 5841 5838 5835 5833 5830 5829 5825 5820 5818 5819 5817 5814 5812 5815 5819 5817 5815 5817 5817 5817 5816
5882 5883 5881 5879 5877 5876 5874 5870 5870 5868 5867 5863 5860 5858 5855 5852 5847 5842 5839 5838 5837 5834 5832 5830 5826 5823 5821 5818 5815 5811 5808 5804 5802 5802 5801 5800 5798 5801 5804 5804 5804 5804 5803 5803
5879 5877 5876 5874 5872 5870 5869 5865 5862 5859 5855 5854 5850 5849 5842 5838 5835 5829 5825 5822 5820 5819 5818 5816 5813 5809 5805 5802 5799 5795 5792 5789 5786 5784 5783 5784 5783 5782 5783 5787 5789 5791 5791 5790
5874 5874 5873 5870 5867 5862 5861 5858 5855 5850 5846 5843 5839 5837 5835 5827 5820 5816 5812 5808 5803 5800 5799 5796 5794 5791 5788 5785 5782 5779 5775 5773 5770 5766 5764 5762 5763 5763 5764 5764 5769 5772 5774 5775
5870 5868 5867 5864 5859 5855 5852 5850 5847 5841 5838 5835 5832 5827 5819 5813 5808 5801 5797 5794 5789 5785 5782 5779 5775 5770 5767 5765 5761 5758 5755 5752 5749 5746 5743 5741 5739 5741 5743 5745 5746 5751 5754 5756
5866 5864 5862 5859 5854 5847 5843 5840 5836 5832 5828 5825 5819 5814 5809 5799 5795 5792 5787 5781 5776 5771 5765 5761 5757 5753 5749 5743 5738 5735 5732 5729 5727 5723 5720 5720 5719 5719 5719 5721 5721 5725 5731 5736
5859 5856 5852 5850 5845 5840 5836 5832 5828 5821 5820 5817 5814 5805 5798 5792 5785 5780 5772 5766 5759 5752 5746 5741 5735 5729 5724 5718 5711 5708 5704 5702 5697 5692 5689 5687 5689 5694 5693 5693 5696 5698 5703 5711
5851 5849 5844 5840 5835 5833 5826 5822 5818 5813 5809 5803 5800 5796 5784 5775 5772 5766 5757 5747 5737 5732 5727 5722 5715 5708 5697 5690 5684 5673 5666 5664 5663 5654 5651 5652 5654 5656 5659 5663 5665 5669 5675 5680
5845 5843 5837 5832 5829 5823 5818 5815 5808 5802 5796 5788 5787 5779 5775 5765 5757 5749 5740 5730 5722 5712 5707 5704 5697 5688 5677 5670 5662 5650 5639 5631 5625 5617 5612 5612 5617 5617 5621 5628 5630 5635 5643 5650
5836 5834 5829 5824 5820 5815 5810 5804 5798 5792 5784 5775 5774 5771 5765 5755 5744 5735 5724 5716 5705 5697 5691 5684 5674 5659 5643 5634 5625 5615 5607 5601 5598 5592 5587 5586 5586 5582 5586 5591 5594 5599 5608 5616
5828 5825 5821 5817 5811 5804 5800 5793 5785 5777 5771 5760 5753 5759 5750 5741 5732 5720 5706 5695 5685 5675 5664 5653 5641 5630 5620 5610 5605 5598 5591 5586 5580 5573 5568 5565 5566 5564 5563 5565 5567 5566 5570 5580
5821 5816 5810 5805 5801 5794 5789 5782 5774 5764 5758 5754 5734 5738 5729 5726 5716 5707 5689 5676 5666 5654 5645 5631 5619 5609 5600 5592 5586 5581 5576 5572 5567 5561 5556 5551 5548 5547 5547 5548 5546 5545 5544 5552
5810 5806 5801 5796 5789 5782 5777 5770 5760 5749 5742 5737 5729 5711 5714 5702 5696 5687 5673 5660 5646 5632 5621 5609 5598 5588 5584 5576 5569 5564 5561 5559 5553 5546 5542 5537 5533 5531 5532 5531 5529 5525 5524 5528
5803 5797 5791 5785 5778 5771 5766 5760 5749 5740 5729 5717 5720 5703 5690 5684 5676 5663 5650 5639 5626 5614 5602 5591 5581 5573 5569 5563 5558 5550 5546 5544 5538 5531 5527 5523 5521 5518 5517 5516 5514 5511 5508 5510
5790 5784 5778 5774 5766 5760 5755 5747 5737 5728 5716 5705 5694 5691 5677 5669 5657 5642 5630 5617 5604 5591 5584 5575 5566 5559 5553 5546 5541 5536 5532 5530 5524 5519 5514 5510 5508 5505 5503 5502 5499 5496 5495 5497
5777 5771 5765 5761 5753 5746 5742 5732 5725 5716 5702 5692 5681 5674 5662 5653 5642 5626 5613 5598 5585 5574 5565 5556 5548 5544 5538 5533 5527 5522 5519 5515 5511 5507 5503 5498 5495 5493 5490 5488 5486 5485 5483 5484
5766 5759 5752 5748 5741 5734 5726 5715 5712 5705 5691 5679 5668 5656 5646 5633 5625 5612 5597 5580 5569 5559 5550 5542 5534 5527 5522 5517 5511 5505 5504 5501 5498 5496 5492 5488 5483 5480 5478 5477 5476 5474 5472 5474
5756 5749 5740 5736 5729 5723 5716 5706 5698 5689 5690 5667 5655 5643 5632 5618 5605 5603 5583 5569 5556 5544 5534 5526 5518 5511 5503 5500 5495 5490 5490 5487 5484 5483 5481 5476 5472 5468 5466 5465 5465 5464 5463 5466
5746 5738 5731 5723 5714 5710 5699 5692 5684 5674 5670 5656 5638 5626 5612 5598 5582 5580 5568 5558 5545 5533 5520 5509 5502 5495 5486 5484 5479 5474 5475 5472 5471 5470 5469 5465 5461 5457 5455 5455 5456 5455 5453 5457
5733 5723 5716 5710 5698 5699 5687 5681 5669 5660 5647 5642 5626 5612 5599 5581 5567 5551 5543 5535 5523 5513 5504 5494 5486 5477 5471 5465 5460 5457 5458 5457 5455 5455 5455 5453 5452 5446 5445 5445 5447 5447 5445 5450
5723 5711 5706 5701 5690 5683 5674 5667 5654 5645 5638 5618 5608 5594 5580 5567 5555 5540 5528 5516 5505 5495 5487 5479 5468 5463 5455 5448 5442 5437 5439 5440 5440 5440 5441 5440 5441 5437 5435 5435 5440 5440 5439 5446
5713 5703 5698 5694 5687 5674 5665 5654 5644 5630 5617 5605 5590 5580 5563 5549 5538 5525 5514 5505 5494 5481 5471 5462 5452 5445 5440 5432 5425 5419 5420 5421 5424 5426 5427 5428 5429 5426 5426 5428 5433 5433 5433 5442
5703 5690 5688 5679 5677 5665 5656 5646 5633 5621 5607 5593 5579 5563 5549 5536 5526 5514 5503 5491 5479 5468 5456 5446 5437 5428 5420 5415 5410 5405 5403 5403 5407 5411 5413 5416 5417 5416 5417 5420 5425 5427 5430 5442
5688 5677 5675 5670 5662 5656 5645 5633 5623 5611 5595 5584 5571 5553 5538 5527 5515 5501 5489 5476 5465 5454 5445 5434 5424 5414 5404 5400 5396 5392 5390 5388 5391 5396 5400 5404 5405 5406 5409 5415 5420 5423 5428 5441
5673 5668 5663 5658 5650 5643 5635 5623 5609 5597 5585 5573 5558 5547 5532 5514 5502 5489 5477 5465 5453 5443 5432 5422 5413 5403 5393 5388 5385 5382 5379 5377 5380 5384 5390 5394 5395 5397 5403 5410 5416 5419 5426 5438